This demonstration page uses our WeatherBlox Daily Observations layout. Learn more.

Left ArrowRight Arrow

41.86663, -103.66717

Hourly Observations for March 16, 2017

Temp ( °F °C ) Dew Point ( °F °C ) Humidity (%) Winds ( mph kmh ) Pressure ( in mb ) Visibility ( mi km ) Precip ( " mm )
12:53 am 00:53 Clear 35 1.7 26 -3.3 70 70 NNW 3 6 29.91 1013 10 16 0.00 0.00
1:53 am 01:53 Clear 36 2.2 25 -3.9 64 64 NE 6 9 29.89 1012 10 16 0.00 0.00
2:53 am 02:53 Clear 39 3.9 26 -3.3 60 60 NNW 13 20 29.85 1011 10 16 0.00 0.00
3:53 am 03:53 Clear 37 2.8 25 -3.9 62 62 WNW 8 13 29.85 1011 10 16 0.00 0.00
4:53 am 04:53 Clear 34 1.1 24 -4.4 67 67 E 5 7 29.85 1011 10 16 0.00 0.00
5:53 am 05:53 Clear 34 1.1 24 -4.4 67 67 NNE 5 7 29.84 1011 10 16 0.00 0.00
6:53 am 06:53 Clear 33 0.6 24 -4.4 70 70 Calm 29.85 1011 10 16 0.00 0.00
7:53 am 07:53 Sunny 42 5.6 30 -1.1 62 62 Calm 29.87 1012 10 16 0.00 0.00
8:53 am 08:53 Sunny 49 9.4 28 -2.2 44 44 Calm 29.87 1011 10 16 0.00 0.00
9:53 am 09:53 Sunny 51 10.6 31 -0.6 46 46 Calm 29.86 1011 10 16 0.00 0.00
10:46 am 10:46 Hazy 70 21 25 -4 18 18 W 25 41 29.71 1006 3 4 0.00 0.00
10:53 am 10:53 Hazy 71 21.7 25 -3.9 18 18 W 26 43 29.80 1009 3 5 0.00 0.00
11:53 am 11:53 Hazy 75 23.9 24 -4.4 15 15 W 29 46 29.79 1009 4 6 0.00 0.00
12:53 pm 12:53 Sunny 77 25 24 -4.4 14 14 WNW 31 50 29.78 1009 10 16 0.00 0.00
1:53 pm 13:53 Hazy 78 25.6 22 -5.6 12 12 WNW 24 39 29.77 1008 4 6 0.00 0.00
2:53 pm 14:53 Hazy 77 25 23 -5 13 13 W 32 52 29.75 1008 3 5 0.00 0.00
3:53 pm 15:53 Hazy 75 23.9 21 -6.1 13 13 W 31 50 29.78 1009 4 6 0.00 0.00
4:53 pm 16:53 Hazy 74 23.3 22 -5.6 14 14 W 25 41 29.80 1009 4 6 0.00 0.00
5:53 pm 17:53 Sunny 72 22.2 17 -8.3 12 12 WNW 22 35 29.83 1010 8 13 0.00 0.00
6:53 pm 18:53 Hazy 67 19.4 20 -6.7 17 17 W 14 22 29.88 1012 3 5 0.00 0.00
7:53 pm 19:53 Hazy 61 16.1 23 -5 23 23 W 15 24 29.90 1013 5 8 0.00 0.00
8:53 pm 20:53 Clear 55 12.8 24 -4.4 30 30 WNW 10 17 29.93 1014 9 14 0.00 0.00
9:53 pm 21:53 Clear 49 9.4 25 -3.9 39 39 NW 7 11 29.98 1015 10 16 0.00 0.00
10:53 pm 22:53 Clear 50 10 31 -0.6 48 48 N 13 20 29.94 1014 10 16 0.00 0.00
11:53 pm 23:53 Hazy 45 7.2 35 1.7 68 68 WNW 6 9 29.99 1016 5 8 0.00 0.00

Powered by AerisWeather